Time,TemperatureF,DewpointF,PressureIn,WindDirection,WindDirectionDegrees,WindSpeedMPH,WindSpeedGustMPH,Humidity,HourlyPrecipIn,Conditions,Clouds,dailyrainin,SoftwareType,DateUTC
2013-02-05 00:00:00,47.3,35.3,30.04,North,357,0.0,0.0,63,0.00,CLR,,0.00,WeatherDisplay:10.37,2013-02-05 05:00:00,
2013-02-05 00:01:00,47.3,35.3,30.04,North,357,0.0,0.0,63,0.00,CLR,,0.00,WeatherDisplay:10.37,2013-02-05 05:01:00,
2013-02-05 00:06:00,47.3,35.3,30.04,North,357,0.0,0.0,63,0.00,CLR,,0.00,WeatherDisplay:10.37,2013-02-05 05:06:00,
2013-02-05 00:08:00,47.5,35.5,30.04,North,357,0.0,0.0,63,0.00,CLR,,0.00,WeatherDisplay:10.37,2013-02-05 05:08:00,
2013-02-05 00:16:00,47.5,35.9,30.01,North,357,0.0,0.0,64,0.00,CLR,,0.00,WeatherDisplay:10.37,2013-02-05 05:16:00,
2013-02-05 00:21:00,47.3,35.7,30.01,North,357,0.0,0.0,64,0.00,CLR,,0.00,WeatherDisplay:10.37,2013-02-05 05:21:00,
2013-02-05 00:31:00,47.1,36.0,30.01,North,357,0.0,0.0,65,0.00,CLR,,0.00,WeatherDisplay:10.37,2013-02-05 05:31:00,
2013-02-05 00:36:00,47.1,36.0,30.01,North,357,0.0,0.0,65,0.00,CLR,,0.00,WeatherDisplay:10.37,2013-02-05 05:36:00,
2013-02-05 00:46:00,46.8,35.6,30.01,North,357,0.0,0.0,65,0.00,CLR,,0.00,WeatherDisplay:10.37,2013-02-05 05:46:00,
2013-02-05 00:51:00,46.8,36.0,30.01,North,357,0.0,0.0,66,0.00,CLR,,0.00,WeatherDisplay:10.37,2013-02-05 05:51:00,
2013-02-05 01:00:00,46.6,35.8,30.01,North,357,0.0,0.0,66,0.00,CLR,,0.00,WeatherDisplay:10.37,2013-02-05 06:00:00,
2013-02-05 01:01:00,46.4,36.0,30.01,North,357,0.0,0.0,67,0.00,CLR,,0.00,WeatherDisplay:10.37,2013-02-05 06:01:00,
2013-02-05 01:05:00,46.6,35.8,30.01,North,357,0.0,0.0,66,0.00,CLR,,0.00,WeatherDisplay:10.37,2013-02-05 06:05:00,
2013-02-05 01:10:00,46.4,36.0,30.01,North,357,0.0,0.0,67,0.00,CLR,,0.00,WeatherDisplay:10.37,2013-02-05 06:10:00,
2013-02-05 01:16:00,46.2,35.9,30.01,North,357,0.0,0.0,67,0.00,CLR,,0.00,WeatherDisplay:10.37,2013-02-05 06:16:00,
2013-02-05 01:21:00,46.0,35.7,30.01,North,357,0.0,0.0,67,0.00,CLR,,0.00,WeatherDisplay:10.37,2013-02-05 06:21:00,
2013-02-05 01:31:00,46.0,36.1,30.01,North,357,0.0,0.0,68,0.00,CLR,,0.00,WeatherDisplay:10.37,2013-02-05 06:31:00,
2013-02-05 01:36:00,46.0,36.1,30.01,North,357,0.0,0.0,68,0.00,CLR,,0.00,WeatherDisplay:10.37,2013-02-05 06:36:00,
2013-02-05 01:46:00,45.9,35.9,29.98,North,357,0.0,0.0,68,0.00,CLR,,0.00,WeatherDisplay:10.37,2013-02-05 06:46:00,
2013-02-05 01:51:00,45.5,35.5,29.98,North,357,0.0,0.0,68,0.00,CLR,,0.00,WeatherDisplay:10.37,2013-02-05 06:51:00,
2013-02-05 02:00:00,45.5,35.9,29.98,North,357,0.0,0.0,69,0.00,CLR,,0.00,WeatherDisplay:10.37,2013-02-05 07:00:00,
2013-02-05 02:01:00,45.5,35.9,29.98,North,357,0.0,0.0,69,0.00,CLR,,0.00,WeatherDisplay:10.37,2013-02-05 07:01:00,
2013-02-05 02:05:00,45.5,35.9,29.98,North,357,0.0,0.0,69,0.00,CLR,,0.00,WeatherDisplay:10.37,2013-02-05 07:05:00,
2013-02-05 02:10:00,45.5,35.9,29.98,North,357,0.0,0.0,69,0.00,CLR,,0.00,WeatherDisplay:10.37,2013-02-05 07:10:00,
2013-02-05 02:16:00,45.5,36.3,29.98,North,357,0.0,0.0,70,0.00,CLR,,0.00,WeatherDisplay:10.37,2013-02-05 07:16:00,
2013-02-05 02:19:00,45.5,36.3,29.98,North,357,0.0,0.0,70,0.00,CLR,,0.00,WeatherDisplay:10.37,2013-02-05 07:19:00,
2013-02-05 02:24:00,45.5,36.3,29.98,North,357,0.0,0.0,70,0.00,CLR,,0.00,WeatherDisplay:10.37,2013-02-05 07:24:00,
2013-02-05 02:31:00,45.5,36.3,29.95,North,357,0.0,0.0,70,0.00,CLR,,0.00,WeatherDisplay:10.37,2013-02-05 07:31:00,
2013-02-05 02:36:00,45.3,36.1,29.95,North,357,0.0,0.0,70,0.00,CLR,,0.00,WeatherDisplay:10.37,2013-02-05 07:36:00,
2013-02-05 02:46:00,45.3,36.5,29.95,North,357,0.0,0.0,71,0.00,CLR,,0.00,WeatherDisplay:10.37,2013-02-05 07:46:00,
2013-02-05 02:51:00,45.1,36.3,29.95,North,357,0.0,0.0,71,0.00,CLR,,0.00,WeatherDisplay:10.37,2013-02-05 07:51:00,
2013-02-05 03:00:00,45.1,36.3,29.95,North,357,0.0,0.0,71,0.00,CLR,,0.00,WeatherDisplay:10.37,2013-02-05 08:00:00,
2013-02-05 03:01:00,45.0,36.1,29.95,North,357,0.0,0.0,71,0.00,CLR,,0.00,WeatherDisplay:10.37,2013-02-05 08:01:00,
2013-02-05 03:05:00,45.1,36.3,29.95,North,357,0.0,0.0,71,0.00,CLR,,0.00,WeatherDisplay:10.37,2013-02-05 08:05:00,
2013-02-05 03:10:00,45.0,36.1,29.95,North,357,0.0,0.0,71,0.00,CLR,,0.00,WeatherDisplay:10.37,2013-02-05 08:10:00,
2013-02-05 03:16:00,45.0,36.5,29.95,North,357,0.0,0.0,72,0.00,CLR,,0.00,WeatherDisplay:10.37,2013-02-05 08:16:00,
2013-02-05 03:21:00,45.1,36.6,29.95,North,357,0.0,0.0,72,0.00,CLR,,0.00,WeatherDisplay:10.37,2013-02-05 08:21:00,
2013-02-05 03:31:00,45.1,36.6,29.95,North,357,0.0,0.0,72,0.00,CLR,,0.00,WeatherDisplay:10.37,2013-02-05 08:31:00,
2013-02-05 03:36:00,45.0,36.5,29.95,North,357,0.0,0.0,72,0.00,CLR,,0.00,WeatherDisplay:10.37,2013-02-05 08:36:00,
2013-02-05 03:46:00,45.0,36.5,29.95,North,357,0.0,0.0,72,0.00,CLR,,0.00,WeatherDisplay:10.37,2013-02-05 08:46:00,
2013-02-05 03:51:00,45.0,36.8,29.95,North,357,0.0,0.0,73,0.00,CLR,,0.00,WeatherDisplay:10.37,2013-02-05 08:51:00,
2013-02-05 04:00:00,45.1,37.0,29.95,North,357,0.0,0.0,73,0.00,CLR,,0.00,WeatherDisplay:10.37,2013-02-05 09:00:00,
2013-02-05 04:01:00,45.1,37.0,29.95,North,357,0.0,0.0,73,0.00,CLR,,0.00,WeatherDisplay:10.37,2013-02-05 09:01:00,
2013-02-05 04:05:00,45.1,37.0,29.95,North,357,0.0,0.0,73,0.00,CLR,,0.00,WeatherDisplay:10.37,2013-02-05 09:05:00,
2013-02-05 04:10:00,45.1,37.0,29.95,North,357,0.0,0.0,73,0.00,CLR,,0.00,WeatherDisplay:10.37,2013-02-05 09:10:00,
2013-02-05 04:16:00,45.1,37.0,29.95,North,357,0.0,0.0,73,0.00,CLR,,0.00,WeatherDisplay:10.37,2013-02-05 09:16:00,
2013-02-05 04:21:00,45.1,37.0,29.95,North,357,0.0,0.0,73,0.00,CLR,,0.00,WeatherDisplay:10.37,2013-02-05 09:21:00,
2013-02-05 04:31:00,45.5,37.7,29.95,North,357,0.0,0.0,74,0.00,CLR,,0.00,WeatherDisplay:10.37,2013-02-05 09:31:00,
2013-02-05 04:36:00,45.7,37.9,29.95,North,357,0.0,0.0,74,0.00,CLR,,0.00,WeatherDisplay:10.37,2013-02-05 09:36:00,
2013-02-05 04:46:00,46.0,38.2,29.95,North,357,0.0,0.0,74,0.00,CLR,,0.00,WeatherDisplay:10.37,2013-02-05 09:46:00,
2013-02-05 04:51:00,45.9,38.0,29.95,North,357,0.0,0.0,74,0.00,CLR,,0.00,WeatherDisplay:10.37,2013-02-05 09:51:00,
2013-02-05 05:00:00,45.7,37.9,29.95,North,357,0.0,0.0,74,0.00,CLR,,0.00,WeatherDisplay:10.37,2013-02-05 10:00:00,
2013-02-05 05:01:00,46.0,38.6,29.95,North,357,0.0,0.0,75,0.00,CLR,,0.00,WeatherDisplay:10.37,2013-02-05 10:01:00,
2013-02-05 05:05:00,45.9,38.0,29.95,North,357,0.0,0.0,74,0.00,CLR,,0.00,WeatherDisplay:10.37,2013-02-05 10:05:00,
2013-02-05 05:10:00,45.9,38.4,29.95,North,357,0.0,0.0,75,0.00,CLR,,0.00,WeatherDisplay:10.37,2013-02-05 10:10:00,
2013-02-05 05:16:00,46.2,38.7,29.95,North,357,0.0,0.0,75,0.00,CLR,,0.00,WeatherDisplay:10.37,2013-02-05 10:16:00,
2013-02-05 05:21:00,46.4,38.9,29.95,North,349,0.0,0.0,75,0.00,CLR,,0.00,WeatherDisplay:10.37,2013-02-05 10:21:00,
2013-02-05 05:31:00,46.6,39.1,29.95,North,357,0.0,0.0,75,0.00,CLR,,0.00,WeatherDisplay:10.37,2013-02-05 10:31:00,
2013-02-05 05:36:00,46.8,39.3,29.95,North,357,0.0,0.0,75,0.00,CLR,,0.00,WeatherDisplay:10.37,2013-02-05 10:36:00,
2013-02-05 05:46:00,46.4,38.9,29.95,North,357,0.0,0.0,75,0.00,CLR,,0.00,WeatherDisplay:10.37,2013-02-05 10:46:00,
2013-02-05 05:51:00,46.2,38.7,29.95,North,357,0.0,0.0,75,0.00,CLR,,0.00,WeatherDisplay:10.37,2013-02-05 10:51:00,
2013-02-05 06:00:00,45.9,38.4,29.95,North,357,0.0,0.0,75,0.00,CLR,,0.00,WeatherDisplay:10.37,2013-02-05 11:00:00,
2013-02-05 06:01:00,46.0,38.9,29.95,North,357,0.0,0.0,76,0.00,CLR,,0.00,WeatherDisplay:10.37,2013-02-05 11:01:00,
2013-02-05 06:05:00,45.9,38.4,29.95,North,357,0.0,0.0,75,0.00,CLR,,0.00,WeatherDisplay:10.37,2013-02-05 11:05:00,
2013-02-05 06:10:00,46.0,38.9,29.95,North,357,0.0,0.0,76,0.00,CLR,,0.00,WeatherDisplay:10.37,2013-02-05 11:10:00,
2013-02-05 06:16:00,46.0,38.9,29.95,North,357,0.0,0.0,76,0.00,CLR,,0.00,WeatherDisplay:10.37,2013-02-05 11:16:00,
2013-02-05 06:21:00,46.0,38.9,29.95,North,0,0.0,0.0,76,0.00,CLR,,0.00,WeatherDisplay:10.37,2013-02-05 11:21:00,
2013-02-05 06:31:00,46.0,38.9,29.95,North,0,0.0,0.0,76,0.00,CLR,,0.00,WeatherDisplay:10.37,2013-02-05 11:31:00,
2013-02-05 06:36:00,46.0,38.9,29.95,North,0,0.0,0.0,76,0.00,CLR,,0.00,WeatherDisplay:10.37,2013-02-05 11:36:00,
2013-02-05 06:46:00,45.9,38.7,29.95,North,0,0.0,0.0,76,0.00,CLR,,0.00,WeatherDisplay:10.37,2013-02-05 11:46:00,
2013-02-05 06:51:00,45.9,38.7,29.95,North,0,0.0,0.0,76,0.00,CLR,,0.00,WeatherDisplay:10.37,2013-02-05 11:51:00,
2013-02-05 07:00:00,45.9,38.7,29.95,North,0,0.0,0.0,76,0.00,CLR,,0.00,WeatherDisplay:10.37,2013-02-05 12:00:00,
2013-02-05 07:01:00,46.0,38.9,29.98,North,0,0.0,0.0,76,0.00,CLR,,0.00,WeatherDisplay:10.37,2013-02-05 12:01:00,
2013-02-05 07:05:00,45.9,38.7,29.95,North,0,0.0,0.0,76,0.00,CLR,,0.00,WeatherDisplay:10.37,2013-02-05 12:05:00,
2013-02-05 07:10:00,46.0,38.9,29.95,North,0,0.0,0.0,76,0.00,CLR,,0.00,WeatherDisplay:10.37,2013-02-05 12:10:00,
2013-02-05 07:16:00,46.0,38.9,29.98,North,0,0.0,0.0,76,0.00,CLR,,0.00,WeatherDisplay:10.37,2013-02-05 12:16:00,
2013-02-05 07:21:00,46.0,38.9,29.98,North,0,0.0,0.0,76,0.00,CLR,,0.00,WeatherDisplay:10.37,2013-02-05 12:21:00,
2013-02-05 07:31:00,46.2,39.4,30.01,North,0,0.0,0.0,77,0.00,CLR,,0.00,WeatherDisplay:10.37,2013-02-05 12:31:00,
2013-02-05 07:36:00,46.2,39.4,30.01,North,0,0.0,0.0,77,0.00,CLR,,0.00,WeatherDisplay:10.37,2013-02-05 12:36:00,
2013-02-05 07:46:00,46.4,39.2,30.01,North,0,0.0,0.0,76,0.00,CLR,,0.00,WeatherDisplay:10.37,2013-02-05 12:46:00,
2013-02-05 07:51:00,46.6,39.8,30.01,North,0,0.0,0.0,77,0.00,CLR,,0.00,WeatherDisplay:10.37,2013-02-05 12:51:00,
2013-02-05 08:00:00,46.8,39.9,30.01,North,0,0.0,0.0,77,0.00,CLR,,0.00,WeatherDisplay:10.37,2013-02-05 13:00:00,
2013-02-05 08:01:00,47.5,41.0,30.01,North,0,0.0,0.0,78,0.00,CLR,,0.00,WeatherDisplay:10.37,2013-02-05 13:01:00,
2013-02-05 08:05:00,47.1,40.3,30.01,North,0,0.0,0.0,77,0.00,CLR,,0.00,WeatherDisplay:10.37,2013-02-05 13:05:00,
2013-02-05 08:10:00,47.5,41.0,30.01,North,0,0.0,0.0,78,0.00,CLR,,0.00,WeatherDisplay:10.37,2013-02-05 13:10:00,
2013-02-05 08:16:00,48.0,41.5,30.01,North,0,0.0,0.0,78,0.00,CLR,,0.00,WeatherDisplay:10.37,2013-02-05 13:16:00,
2013-02-05 08:21:00,48.7,42.5,30.01,ESE,108,0.0,0.0,79,0.00,CLR,,0.00,WeatherDisplay:10.37,2013-02-05 13:21:00,
2013-02-05 08:31:00,50.2,44.2,30.01,SE,138,3.4,3.4,80,0.00,CLR,,0.00,WeatherDisplay:10.37,2013-02-05 13:31:00,
2013-02-05 08:36:00,51.1,45.1,30.01,ESE,119,4.9,4.9,80,0.00,CLR,,0.00,WeatherDisplay:10.37,2013-02-05 13:36:00,
2013-02-05 08:46:00,52.9,46.9,30.01,ESE,114,5.8,5.8,80,0.00,CLR,,0.00,WeatherDisplay:10.37,2013-02-05 13:46:00,
2013-02-05 08:51:00,53.8,47.8,30.01,East,91,4.0,4.0,80,0.00,CLR,,0.00,WeatherDisplay:10.37,2013-02-05 13:51:00,
2013-02-05 09:00:00,55.8,49.3,30.04,East,85,5.8,5.8,79,0.00,CLR,,0.00,WeatherDisplay:10.37,2013-02-05 14:00:00,
2013-02-05 09:01:00,57.4,47.3,30.04,ESE,120,4.9,4.9,69,0.00,CLR,,0.00,WeatherDisplay:10.37,2013-02-05 14:01:00,
2013-02-05 09:05:00,56.3,48.5,30.04,East,80,4.6,4.6,75,0.00,CLR,,0.00,WeatherDisplay:10.37,2013-02-05 14:05:00,
2013-02-05 09:10:00,57.2,47.5,30.04,SE,142,4.0,4.0,70,0.00,CLR,,0.00,WeatherDisplay:10.37,2013-02-05 14:10:00,
2013-02-05 09:16:00,58.1,46.4,30.04,ESE,105,5.8,5.8,65,0.00,CLR,,0.00,WeatherDisplay:10.37,2013-02-05 14:16:00,
2013-02-05 09:21:00,58.8,46.2,30.04,ENE,75,4.0,4.0,63,0.00,CLR,,0.00,WeatherDisplay:10.37,2013-02-05 14:21:00,
2013-02-05 09:31:00,60.1,44.8,30.04,SE,124,3.4,0.0,57,0.00,CLR,,0.00,WeatherDisplay:10.37,2013-02-05 14:31:00,
2013-02-05 09:36:00,60.4,40.6,30.04,ESE,117,5.4,5.4,48,0.00,CLR,,0.00,WeatherDisplay:10.37,2013-02-05 14:36:00,
2013-02-05 09:46:00,61.7,40.1,30.01,ESE,115,4.0,4.0,45,0.00,CLR,,0.00,WeatherDisplay:10.37,2013-02-05 14:46:00,
2013-02-05 09:51:00,62.2,40.0,30.01,ESE,112,2.7,2.7,44,0.00,CLR,,0.00,WeatherDisplay:10.37,2013-02-05 14:51:00,
2013-02-05 10:00:00,63.1,38.4,30.04,East,100,5.8,5.8,40,0.00,CLR,,0.00,WeatherDisplay:10.37,2013-02-05 15:00:00,
2013-02-05 10:01:00,64.4,38.9,30.04,East,98,3.4,0.0,39,0.00,CLR,,0.00,WeatherDisplay:10.37,2013-02-05 15:01:00,
2013-02-05 10:05:00,63.7,39.5,30.04,SE,124,2.7,2.7,41,0.00,CLR,,0.00,WeatherDisplay:10.37,2013-02-05 15:05:00,
2013-02-05 10:10:00,64.4,38.9,30.04,ENE,61,4.0,4.0,39,0.00,CLR,,0.00,WeatherDisplay:10.37,2013-02-05 15:10:00,
2013-02-05 10:16:00,65.1,38.2,30.04,East,96,3.4,3.4,37,0.00,CLR,,0.00,WeatherDisplay:10.37,2013-02-05 15:16:00,
2013-02-05 10:21:00,65.7,37.2,30.04,East,101,3.4,3.4,35,0.00,CLR,,0.00,WeatherDisplay:10.37,2013-02-05 15:21:00,
2013-02-05 10:31:00,66.6,36.5,30.04,North,6,3.4,3.4,33,0.00,CLR,,0.00,WeatherDisplay:10.37,2013-02-05 15:31:00,
2013-02-05 10:36:00,66.9,36.9,30.04,North,0,3.4,3.4,33,0.00,CLR,,0.00,WeatherDisplay:10.37,2013-02-05 15:36:00,
2013-02-05 10:46:00,67.8,38.4,30.04,ENE,77,4.0,4.0,34,0.00,CLR,,0.00,WeatherDisplay:10.37,2013-02-05 15:46:00,
2013-02-05 10:51:00,68.4,38.1,30.04,East,91,5.8,5.8,33,0.00,CLR,,0.00,WeatherDisplay:10.37,2013-02-05 15:51:00,
2013-02-05 11:00:00,68.9,38.6,30.04,North,0,3.4,0.0,33,0.00,CLR,,0.00,WeatherDisplay:10.37,2013-02-05 16:00:00,
2013-02-05 11:01:00,69.8,37.8,30.04,NE,52,3.6,3.6,31,0.00,CLR,,0.00,WeatherDisplay:10.37,2013-02-05 16:01:00,
2013-02-05 11:05:00,69.3,38.1,30.04,NE,50,3.4,3.4,32,0.00,CLR,,0.00,WeatherDisplay:10.37,2013-02-05 16:05:00,
2013-02-05 11:10:00,69.6,37.6,30.04,ESE,119,3.4,3.4,31,0.00,CLR,,0.00,WeatherDisplay:10.37,2013-02-05 16:10:00,
2013-02-05 11:16:00,70.2,37.3,30.04,NNE,15,4.0,4.0,30,0.00,CLR,,0.00,WeatherDisplay:10.37,2013-02-05 16:16:00,
2013-02-05 11:21:00,70.5,36.7,30.04,North,353,3.4,3.4,29,0.00,CLR,,0.00,WeatherDisplay:10.37,2013-02-05 16:21:00,
2013-02-05 11:31:00,71.2,36.4,30.04,SE,144,3.4,3.4,28,0.00,CLR,,0.00,WeatherDisplay:10.37,2013-02-05 16:31:00,
2013-02-05 11:36:00,71.8,39.5,30.04,SSW,197,5.8,5.8,31,0.00,CLR,,0.00,WeatherDisplay:10.37,2013-02-05 16:36:00,
2013-02-05 11:46:00,73.0,40.6,30.04,SE,139,3.4,0.0,31,0.00,CLR,,0.00,WeatherDisplay:10.37,2013-02-05 16:46:00,
2013-02-05 11:51:00,73.4,38.3,30.04,North,4,3.4,3.4,28,0.00,CLR,,0.00,WeatherDisplay:10.37,2013-02-05 16:51:00,
2013-02-05 12:00:00,73.6,38.5,30.04,SE,133,6.3,6.3,28,0.00,CLR,,0.00,WeatherDisplay:10.37,2013-02-05 17:00:00,
2013-02-05 12:01:00,73.8,40.4,30.04,SSE,165,8.1,8.1,30,0.00,CLR,,0.00,WeatherDisplay:10.37,2013-02-05 17:01:00,
2013-02-05 12:05:00,73.4,38.3,30.04,SE,145,8.3,8.3,28,0.00,CLR,,0.00,WeatherDisplay:10.37,2013-02-05 17:05:00,
2013-02-05 12:10:00,73.8,39.5,30.04,SSE,149,5.8,5.8,29,0.00,CLR,,0.00,WeatherDisplay:10.37,2013-02-05 17:10:00,
2013-02-05 12:16:00,74.1,40.7,30.04,SE,141,5.8,5.8,30,0.00,CLR,,0.00,WeatherDisplay:10.37,2013-02-05 17:16:00,
2013-02-05 12:21:00,74.3,41.7,30.04,SE,133,5.8,5.8,31,0.00,CLR,,0.00,WeatherDisplay:10.37,2013-02-05 17:21:00,
2013-02-05 12:31:00,74.7,42.0,30.04,SW,215,6.3,6.3,31,0.00,CLR,,0.00,WeatherDisplay:10.37,2013-02-05 17:31:00,
2013-02-05 12:36:00,74.8,42.2,30.04,SW,224,8.1,8.1,31,0.00,CLR,,0.00,WeatherDisplay:10.37,2013-02-05 17:36:00,
2013-02-05 12:46:00,75.2,42.5,30.04,SSE,162,6.3,6.3,31,0.00,CLR,,0.00,WeatherDisplay:10.37,2013-02-05 17:46:00,
2013-02-05 12:51:00,75.4,42.6,30.04,SW,216,5.8,5.8,31,0.00,CLR,,0.00,WeatherDisplay:10.37,2013-02-05 17:51:00,
2013-02-05 13:00:00,75.2,40.7,30.01,SE,124,10.3,10.3,29,0.00,CLR,,0.00,WeatherDisplay:10.37,2013-02-05 18:00:00,
2013-02-05 13:01:00,75.6,41.9,30.01,South,183,8.1,8.1,30,0.00,CLR,,0.00,WeatherDisplay:10.37,2013-02-05 18:01:00,
2013-02-05 13:05:00,75.4,42.6,30.01,SSW,211,5.8,5.8,31,0.00,CLR,,0.00,WeatherDisplay:10.37,2013-02-05 18:05:00,
2013-02-05 13:10:00,75.6,41.1,30.01,South,175,8.1,8.1,29,0.00,CLR,,0.00,WeatherDisplay:10.37,2013-02-05 18:10:00,
2013-02-05 13:16:00,75.6,41.9,30.01,WNW,297,5.8,5.8,30,0.00,CLR,,0.00,WeatherDisplay:10.37,2013-02-05 18:16:00,
2013-02-05 13:21:00,75.7,41.2,30.01,South,190,8.1,8.1,29,0.00,CLR,,0.00,WeatherDisplay:10.37,2013-02-05 18:21:00,
2013-02-05 13:31:00,75.7,41.2,30.01,SSE,151,8.1,8.1,29,0.00,CLR,,0.00,WeatherDisplay:10.37,2013-02-05 18:31:00,
2013-02-05 13:36:00,75.9,40.5,30.01,SW,215,10.1,10.1,28,0.00,CLR,,0.00,WeatherDisplay:10.37,2013-02-05 18:36:00,
2013-02-05 13:46:00,76.3,40.8,30.01,South,171,8.3,8.3,28,0.00,CLR,,0.00,WeatherDisplay:10.37,2013-02-05 18:46:00,
2013-02-05 13:51:00,76.5,40.9,30.01,SSW,212,8.1,8.1,28,0.00,CLR,,0.00,WeatherDisplay:10.37,2013-02-05 18:51:00,
2013-02-05 14:00:00,76.5,41.8,29.98,WSW,248,5.8,5.8,29,0.00,CLR,,0.00,WeatherDisplay:10.37,2013-02-05 19:00:00,
2013-02-05 14:01:00,75.9,39.5,29.98,SSW,203,10.3,10.3,27,0.00,CLR,,0.00,WeatherDisplay:10.37,2013-02-05 19:01:00,
2013-02-05 14:05:00,75.9,39.5,29.98,SW,218,8.0,8.0,27,0.00,CLR,,0.00,WeatherDisplay:10.37,2013-02-05 19:05:00,
2013-02-05 14:10:00,76.1,41.5,29.98,South,185,9.2,9.2,29,0.00,CLR,,0.00,WeatherDisplay:10.37,2013-02-05 19:10:00,
2013-02-05 14:16:00,76.5,40.0,29.98,South,189,7.6,7.6,27,0.00,CLR,,0.00,WeatherDisplay:10.37,2013-02-05 19:16:00,
2013-02-05 14:21:00,76.8,41.2,29.98,SSW,198,8.0,8.0,28,0.00,CLR,,0.00,WeatherDisplay:10.37,2013-02-05 19:21:00,
2013-02-05 14:31:00,77.2,39.6,29.98,SW,222,8.1,8.1,26,0.00,CLR,,0.00,WeatherDisplay:10.37,2013-02-05 19:31:00,
2013-02-05 14:36:00,77.2,39.6,29.98,SW,222,8.1,8.1,26,0.00,CLR,,0.00,WeatherDisplay:10.37,2013-02-05 19:36:00,
2013-02-05 14:46:00,77.5,37.9,29.98,West,279,8.1,8.1,24,0.00,CLR,,0.00,WeatherDisplay:10.37,2013-02-05 19:46:00,
2013-02-05 14:51:00,77.0,38.5,29.98,SW,233,8.7,8.7,25,0.00,CLR,,0.00,WeatherDisplay:10.37,2013-02-05 19:51:00,
2013-02-05 15:00:00,77.4,38.8,29.98,SSW,203,8.1,8.1,25,0.00,CLR,,0.00,WeatherDisplay:10.37,2013-02-05 20:00:00,
2013-02-05 15:01:00,77.9,38.2,29.98,SW,227,7.2,7.2,24,0.00,CLR,,0.00,WeatherDisplay:10.37,2013-02-05 20:01:00,
2013-02-05 15:05:00,77.7,39.1,29.98,SSW,212,8.3,8.3,25,0.00,CLR,,0.00,WeatherDisplay:10.37,2013-02-05 20:05:00,
2013-02-05 15:10:00,77.9,39.2,29.98,SW,225,10.3,10.3,25,0.00,CLR,,0.00,WeatherDisplay:10.37,2013-02-05 20:10:00,
2013-02-05 15:16:00,77.4,38.8,29.98,SW,219,8.1,8.1,25,0.00,CLR,,0.00,WeatherDisplay:10.37,2013-02-05 20:16:00,
2013-02-05 15:21:00,77.7,39.1,29.98,SE,142,5.8,5.8,25,0.00,CLR,,0.00,WeatherDisplay:10.37,2013-02-05 20:21:00,
2013-02-05 15:31:00,77.2,38.6,29.98,SSW,212,5.8,5.8,25,0.00,CLR,,0.00,WeatherDisplay:10.37,2013-02-05 20:31:00,
2013-02-05 15:36:00,77.5,38.9,29.98,SE,135,5.8,5.8,25,0.00,CLR,,0.00,WeatherDisplay:10.37,2013-02-05 20:36:00,
2013-02-05 15:46:00,76.8,38.3,29.98,SSW,199,8.1,8.1,25,0.00,CLR,,0.00,WeatherDisplay:10.37,2013-02-05 20:46:00,
2013-02-05 15:51:00,77.0,38.5,29.98,South,181,5.8,5.8,25,0.00,CLR,,0.00,WeatherDisplay:10.37,2013-02-05 20:51:00,
2013-02-05 16:00:00,77.2,38.6,29.98,WSW,249,6.3,6.3,25,0.00,CLR,,0.00,WeatherDisplay:10.37,2013-02-05 21:00:00,
2013-02-05 16:01:00,76.8,38.3,30.01,SW,218,9.2,9.2,25,0.00,CLR,,0.00,WeatherDisplay:10.37,2013-02-05 21:01:00,
2013-02-05 16:05:00,77.0,37.4,29.98,SW,227,6.9,6.9,24,0.00,CLR,,0.00,WeatherDisplay:10.37,2013-02-05 21:05:00,
2013-02-05 16:10:00,76.8,38.3,29.98,WSW,248,9.2,9.2,25,0.00,CLR,,0.00,WeatherDisplay:10.37,2013-02-05 21:10:00,
2013-02-05 16:16:00,77.2,38.6,30.01,SE,135,5.8,5.8,25,0.00,CLR,,0.00,WeatherDisplay:10.37,2013-02-05 21:16:00,
2013-02-05 16:21:00,77.7,39.1,30.01,South,178,5.8,5.8,25,0.00,CLR,,0.00,WeatherDisplay:10.37,2013-02-05 21:21:00,
2013-02-05 16:31:00,76.5,38.0,30.01,SSW,209,5.8,5.8,25,0.00,CLR,,0.00,WeatherDisplay:10.37,2013-02-05 21:31:00,
2013-02-05 16:36:00,76.5,38.0,30.01,WSW,256,5.8,5.8,25,0.00,CLR,,0.00,WeatherDisplay:10.37,2013-02-05 21:36:00,
2013-02-05 16:46:00,75.9,37.6,30.01,SSW,193,5.8,5.8,25,0.00,CLR,,0.00,WeatherDisplay:10.37,2013-02-05 21:46:00,
2013-02-05 16:51:00,75.2,37.9,30.01,SSE,164,8.1,8.1,26,0.00,CLR,,0.00,WeatherDisplay:10.37,2013-02-05 21:51:00,
2013-02-05 17:00:00,73.8,38.6,30.01,West,274,5.8,5.8,28,0.00,CLR,,0.00,WeatherDisplay:10.37,2013-02-05 22:00:00,
2013-02-05 17:01:00,73.2,39.9,30.01,SSE,163,5.8,5.8,30,0.00,CLR,,0.00,WeatherDisplay:10.37,2013-02-05 22:01:00,
2013-02-05 17:05:00,73.4,39.2,30.01,South,180,5.8,5.8,29,0.00,CLR,,0.00,WeatherDisplay:10.37,2013-02-05 22:05:00,
2013-02-05 17:10:00,73.2,39.9,30.01,WSW,248,5.8,5.8,30,0.00,CLR,,0.00,WeatherDisplay:10.37,2013-02-05 22:10:00,
2013-02-05 17:16:00,73.2,40.8,30.01,SW,227,8.1,8.1,31,0.00,CLR,,0.00,WeatherDisplay:10.37,2013-02-05 22:16:00,
2013-02-05 17:21:00,73.0,40.6,30.01,SW,219,5.8,5.8,31,0.00,CLR,,0.00,WeatherDisplay:10.37,2013-02-05 22:21:00,
2013-02-05 17:31:00,71.2,39.9,30.01,SSW,212,5.8,5.8,32,0.00,CLR,,0.00,WeatherDisplay:10.37,2013-02-05 22:31:00,
2013-02-05 17:36:00,70.7,40.2,30.01,South,179,3.4,3.4,33,0.00,CLR,,0.00,WeatherDisplay:10.37,2013-02-05 22:36:00,
2013-02-05 17:46:00,70.0,40.3,30.01,SSW,199,3.6,3.6,34,0.00,CLR,,0.00,WeatherDisplay:10.37,2013-02-05 22:46:00,
2013-02-05 17:51:00,69.6,40.0,30.01,South,183,5.4,5.4,34,0.00,CLR,,0.00,WeatherDisplay:10.37,2013-02-05 22:51:00,
2013-02-05 18:00:00,69.3,40.4,30.01,SW,223,3.4,3.4,35,0.00,CLR,,0.00,WeatherDisplay:10.37,2013-02-05 23:00:00,
2013-02-05 18:01:00,68.7,42.1,30.01,SSW,210,5.8,5.8,38,0.00,CLR,,0.00,WeatherDisplay:10.37,2013-02-05 23:01:00,
2013-02-05 18:05:00,69.1,41.0,30.01,SW,217,4.9,4.9,36,0.00,CLR,,0.00,WeatherDisplay:10.37,2013-02-05 23:05:00,
2013-02-05 18:10:00,68.7,42.1,30.01,SW,221,5.8,5.8,38,0.00,CLR,,0.00,WeatherDisplay:10.37,2013-02-05 23:10:00,
2013-02-05 18:16:00,68.4,41.8,30.01,SSW,204,3.4,3.4,38,0.00,CLR,,0.00,WeatherDisplay:10.37,2013-02-05 23:16:00,
2013-02-05 18:21:00,68.2,42.3,30.01,SSE,152,2.3,2.3,39,0.00,CLR,,0.00,WeatherDisplay:10.37,2013-02-05 23:21:00,
2013-02-05 18:31:00,67.5,42.3,30.01,SSE,163,0.0,0.0,40,0.00,CLR,,0.00,WeatherDisplay:10.37,2013-02-05 23:31:00,
2013-02-05 18:36:00,67.1,42.0,30.01,SSE,167,0.0,0.0,40,0.00,CLR,,0.00,WeatherDisplay:10.37,2013-02-05 23:36:00,
2013-02-05 18:46:00,66.4,42.0,30.01,SSE,166,0.0,0.0,41,0.00,CLR,,0.00,WeatherDisplay:10.37,2013-02-05 23:46:00,
2013-02-05 18:51:00,66.2,41.8,30.01,SSE,166,0.0,0.0,41,0.00,CLR,,0.00,WeatherDisplay:10.37,2013-02-05 23:51:00,
2013-02-05 19:00:00,65.5,42.4,30.01,SSE,166,0.0,0.0,43,0.00,CLR,,0.00,WeatherDisplay:10.37,2013-02-06 00:00:00,
2013-02-05 19:01:00,64.6,42.2,30.01,SSE,166,0.0,0.0,44,0.00,CLR,,0.00,WeatherDisplay:10.37,2013-02-06 00:01:00,
2013-02-05 19:05:00,64.9,41.9,30.01,SSE,166,0.0,0.0,43,0.00,CLR,,0.00,WeatherDisplay:10.37,2013-02-06 00:05:00,
2013-02-05 19:10:00,64.6,42.2,30.01,SSE,166,0.0,0.0,44,0.00,CLR,,0.00,WeatherDisplay:10.37,2013-02-06 00:10:00,
2013-02-05 19:16:00,64.2,42.4,30.01,SSE,166,0.0,0.0,45,0.00,CLR,,0.00,WeatherDisplay:10.37,2013-02-06 00:16:00,
2013-02-05 19:21:00,64.0,42.8,30.01,SSE,166,0.0,0.0,46,0.00,CLR,,0.00,WeatherDisplay:10.37,2013-02-06 00:21:00,
2013-02-05 19:31:00,63.5,42.3,30.01,SSE,166,0.0,0.0,46,0.00,CLR,,0.00,WeatherDisplay:10.37,2013-02-06 00:31:00,
2013-02-05 19:36:00,63.3,42.7,30.01,SSE,166,0.0,0.0,47,0.00,CLR,,0.00,WeatherDisplay:10.37,2013-02-06 00:36:00,
2013-02-05 19:46:00,62.8,42.8,30.01,SSE,166,0.0,0.0,48,0.00,CLR,,0.00,WeatherDisplay:10.37,2013-02-06 00:46:00,
2013-02-05 19:51:00,62.4,43.0,30.01,SSE,166,0.0,0.0,49,0.00,CLR,,0.00,WeatherDisplay:10.37,2013-02-06 00:51:00,
2013-02-05 20:00:00,61.9,43.0,30.01,SSE,166,0.0,0.0,50,0.00,CLR,,0.00,WeatherDisplay:10.37,2013-02-06 01:00:00,
2013-02-05 20:01:00,61.5,43.2,30.01,SSE,166,0.0,0.0,51,0.00,CLR,,0.00,WeatherDisplay:10.37,2013-02-06 01:01:00,
2013-02-05 20:05:00,61.7,42.9,30.01,SSE,166,0.0,0.0,50,0.00,CLR,,0.00,WeatherDisplay:10.37,2013-02-06 01:05:00,
2013-02-05 20:10:00,61.5,43.2,30.01,SSE,166,0.0,0.0,51,0.00,CLR,,0.00,WeatherDisplay:10.37,2013-02-06 01:10:00,
2013-02-05 20:16:00,61.3,43.0,30.01,SSE,166,0.0,0.0,51,0.00,CLR,,0.00,WeatherDisplay:10.37,2013-02-06 01:16:00,
2013-02-05 20:21:00,61.2,43.4,30.01,SSE,166,0.0,0.0,52,0.00,CLR,,0.00,WeatherDisplay:10.37,2013-02-06 01:21:00,
2013-02-05 20:31:00,61.0,43.7,30.01,SE,137,0.0,0.0,53,0.00,CLR,,0.00,WeatherDisplay:10.37,2013-02-06 01:31:00,
2013-02-05 20:36:00,60.8,43.6,30.01,SE,137,0.0,0.0,53,0.00,CLR,,0.00,WeatherDisplay:10.37,2013-02-06 01:36:00,
2013-02-05 20:46:00,60.6,44.4,30.01,SE,137,0.0,0.0,55,0.00,CLR,,0.00,WeatherDisplay:10.37,2013-02-06 01:46:00,
2013-02-05 20:51:00,60.6,44.8,30.01,SE,137,0.0,0.0,56,0.00,CLR,,0.00,WeatherDisplay:10.37,2013-02-06 01:51:00,
2013-02-05 21:00:00,60.6,45.3,30.01,SE,137,0.0,0.0,57,0.00,CLR,,0.00,WeatherDisplay:10.37,2013-02-06 02:00:00,
2013-02-05 21:01:00,60.8,45.9,30.01,SE,137,0.0,0.0,58,0.00,FEW,,0.00,WeatherDisplay:10.37,2013-02-06 02:01:00,
2013-02-05 21:05:00,60.6,45.8,30.01,SE,137,0.0,0.0,58,0.00,FEW,,0.00,WeatherDisplay:10.37,2013-02-06 02:05:00,
2013-02-05 21:10:00,60.8,45.9,30.01,SE,137,0.0,0.0,58,0.00,FEW,,0.00,WeatherDisplay:10.37,2013-02-06 02:10:00,
2013-02-05 21:16:00,60.8,45.9,30.01,SE,137,0.0,0.0,58,0.00,FEW,,0.00,WeatherDisplay:10.37,2013-02-06 02:16:00,
2013-02-05 21:21:00,60.6,46.2,30.01,SE,137,0.0,0.0,59,0.00,FEW,,0.00,WeatherDisplay:10.37,2013-02-06 02:21:00,
2013-02-05 21:31:00,60.6,46.7,30.04,SE,137,0.0,0.0,60,0.00,FEW,,0.00,WeatherDisplay:10.37,2013-02-06 02:31:00,
2013-02-05 21:36:00,60.6,47.1,30.04,SE,137,0.0,0.0,61,0.00,FEW,,0.00,WeatherDisplay:10.37,2013-02-06 02:36:00,
2013-02-05 21:46:00,60.6,47.1,30.04,SE,137,0.0,0.0,61,0.00,FEW,,0.00,WeatherDisplay:10.37,2013-02-06 02:46:00,
2013-02-05 21:51:00,60.4,47.4,30.04,SE,137,0.0,0.0,62,0.00,FEW,,0.00,WeatherDisplay:10.37,2013-02-06 02:51:00,
2013-02-05 22:00:00,60.1,47.0,30.04,SE,137,0.0,0.0,62,0.00,FEW,,0.00,WeatherDisplay:10.37,2013-02-06 03:00:00,
2013-02-05 22:01:00,59.7,47.1,30.04,SE,137,0.0,0.0,63,0.00,SCT,,0.00,WeatherDisplay:10.37,2013-02-06 03:01:00,
2013-02-05 22:05:00,59.9,47.3,30.04,SE,137,0.0,0.0,63,0.00,SCT,,0.00,WeatherDisplay:10.37,2013-02-06 03:05:00,
2013-02-05 22:10:00,59.7,47.1,30.04,SE,137,0.0,0.0,63,0.00,SCT,,0.00,WeatherDisplay:10.37,2013-02-06 03:10:00,
2013-02-05 22:16:00,59.5,46.9,30.04,SE,137,0.0,0.0,63,0.00,SCT,,0.00,WeatherDisplay:10.37,2013-02-06 03:16:00,
2013-02-05 22:21:00,59.4,46.8,30.04,SE,137,0.0,0.0,63,0.00,SCT,,0.00,WeatherDisplay:10.37,2013-02-06 03:21:00,
2013-02-05 22:31:00,59.2,47.0,30.04,SE,137,0.0,0.0,64,0.00,SCT,,0.00,WeatherDisplay:10.37,2013-02-06 03:31:00,
2013-02-05 22:36:00,59.0,46.8,30.04,SE,137,0.0,0.0,64,0.00,SCT,,0.00,WeatherDisplay:10.37,2013-02-06 03:36:00,
2013-02-05 22:46:00,58.6,46.9,30.01,SE,137,0.0,0.0,65,0.00,SCT,,0.00,WeatherDisplay:10.37,2013-02-06 03:46:00,
2013-02-05 22:51:00,58.5,46.7,30.01,SE,137,0.0,0.0,65,0.00,SCT,,0.00,WeatherDisplay:10.37,2013-02-06 03:51:00,
2013-02-05 23:00:00,58.3,47.0,30.01,SE,137,0.0,0.0,66,0.00,SCT,,0.00,WeatherDisplay:10.37,2013-02-06 04:00:00,
2013-02-05 23:01:00,58.3,47.4,30.04,SE,137,0.0,0.0,67,0.00,SCT,,0.00,WeatherDisplay:10.37,2013-02-06 04:01:00,
2013-02-05 23:05:00,58.3,47.0,30.01,SE,137,0.0,0.0,66,0.00,SCT,,0.00,WeatherDisplay:10.37,2013-02-06 04:05:00,
2013-02-05 23:10:00,58.3,47.0,30.01,SE,137,0.0,0.0,66,0.00,SCT,,0.00,WeatherDisplay:10.37,2013-02-06 04:10:00,
2013-02-05 23:16:00,58.3,47.4,30.04,SE,137,0.0,0.0,67,0.00,FEW,,0.00,WeatherDisplay:10.37,2013-02-06 04:16:00,
2013-02-05 23:21:00,58.5,47.9,30.04,SE,137,0.0,0.0,68,0.00,FEW,,0.00,WeatherDisplay:10.37,2013-02-06 04:21:00,
2013-02-05 23:31:00,58.8,48.3,30.04,SE,137,0.0,0.0,68,0.00,FEW,,0.00,WeatherDisplay:10.37,2013-02-06 04:31:00,
2013-02-05 23:36:00,59.2,48.6,30.04,SE,137,0.0,0.0,68,0.00,FEW,,0.00,WeatherDisplay:10.37,2013-02-06 04:36:00,
2013-02-05 23:46:00,59.4,49.2,30.01,SE,137,0.0,0.0,69,0.00,FEW,,0.00,WeatherDisplay:10.37,2013-02-06 04:46:00,
2013-02-05 23:51:00,59.4,49.2,30.01,SE,137,0.0,0.0,69,0.00,FEW,,0.00,WeatherDisplay:10.37,2013-02-06 04:51:00,